Rocky Mount, NC

2:00 AM EDT on June 25, 2017 (GMT -0400)
Rocky Mount-Wilson Regional

Weather History for KRWI - July, 2012

Change the Weather History Date:

Saturday, July 21, 2012

  Actual Average Record
Temperature  
Mean Temperature 82 °F -  
Max Temperature 91 °F 91 °F 102 °F (1977)
Min Temperature 73 °F 70 °F 57 °F (2001)
Cooling Degree Days 17    
Growing Degree Days 32 (Base 50)    
Moisture  
Dew Point 72 °F    
Average Humidity 86    
Maximum Humidity 94    
Minimum Humidity 55    
Precipitation  
Precipitation 1.04 in - - ()
Sea Level Pressure  
Sea Level Pressure 30.02 in    
Wind  
Wind Speed 6 mph (SSW)    
Max Wind Speed 13 mph    
Max Gust Speed 26 mph    
Visibility 8 miles    
Events Rain , Thunderstorm    
Averages and records for this station are not official NWS values.
T = Trace of Precipitation, MM = Missing Value Source: NWS Daily Summary

Daily Weather History Graph

Daily Weather History Graph

Search for Another Location

Airport or City:

Trip Planner

Search our weather history database for the weather conditions in past years. The results will help you decide how hot, cold, wet, or windy it might be!

Date:

Astronomy

Jul. 21, 2012 Rise Set
Actual Time 6:11 AM EDT 8:24 PM EDT
Civil Twilight 5:42 AM EDT 8:53 PM EDT
Nautical Twilight 5:06 AM EDT 9:28 PM EDT
Astronomical Twilight 4:28 AM EDT 10:07 PM EDT
Moon 8:43 AM EDT (7/21) 9:43 PM EDT (7/21)
Length of Visible Light 15h 10m
Length of Day
14h 13m
Waxing Crescent, 7% of the Moon is Illuminated
Jul 21
Waxing Crescent
Jul 26
First Quarter
Aug 1
Full
Aug 9
Last Quarter
Aug 17
New

Hourly Weather History & Observations

Time (EDT) Temp. Heat Index Dew Point Humidity Pressure Visibility Wind Dir Wind Speed Gust Speed Precip Events Conditions
12:53 AM 75.9 °F - 73.0 °F 91% 29.94 in 5.0 mi WSW 3.5 mph - N/A   Mostly Cloudy
1:53 AM 75.0 °F - 73.0 °F 94% 29.95 in 7.0 mi South 4.6 mph - 0.00 in   Scattered Clouds
2:53 AM 75.0 °F - 73.0 °F 94% 29.95 in 5.0 mi SSW 6.9 mph - N/A   Mostly Cloudy
3:26 AM 75.2 °F - 71.6 °F 89% 29.95 in 5.0 mi SSW 6.9 mph - N/A   Mostly Cloudy
3:53 AM 75.0 °F - 72.0 °F 90% 29.95 in 4.0 mi SW 6.9 mph - N/A   Overcast
4:06 AM 75.2 °F - 71.6 °F 89% 29.96 in 4.0 mi SW 4.6 mph - 0.00 in Rain Light Rain
4:53 AM 73.9 °F - 72.0 °F 93% 29.95 in 10.0 mi SW 5.8 mph - 0.00 in   Scattered Clouds
5:13 AM 73.4 °F - 71.6 °F 94% 29.96 in 10.0 mi SW 5.8 mph - N/A   Mostly Cloudy
5:53 AM 73.4 °F - 71.6 °F 94% 29.97 in 10.0 mi WSW 4.6 mph - N/A   Mostly Cloudy
6:17 AM 73.4 °F - 71.6 °F 94% 29.97 in 10.0 mi SW 5.8 mph - N/A   Mostly Cloudy
6:53 AM 75.0 °F - 72.0 °F 90% 29.99 in 8.0 mi SW 8.1 mph - N/A   Overcast
7:53 AM 75.9 °F - 72.0 °F 87% 30.00 in 8.0 mi SW 5.8 mph - N/A   Mostly Cloudy
8:38 AM 78.8 °F - 73.4 °F 83% 30.01 in 10.0 mi SW 5.8 mph - N/A   Scattered Clouds
8:53 AM 80.1 °F 84.2 °F 73.0 °F 79% 30.00 in 10.0 mi SW 5.8 mph - N/A   Scattered Clouds
9:53 AM 82.0 °F 87.4 °F 73.0 °F 74% 30.00 in 10.0 mi SSW 6.9 mph - N/A   Partly Cloudy
10:53 AM 84.0 °F 91.2 °F 73.9 °F 72% 30.01 in 10.0 mi South 5.8 mph - N/A   Partly Cloudy
11:32 AM 84.2 °F 92.3 °F 75.2 °F 74% 30.03 in 10.0 mi SSW 10.4 mph - N/A   Mostly Cloudy
11:45 AM 86.0 °F 93.4 °F 73.4 °F 66% 30.03 in 10.0 mi SW 8.1 mph - N/A   Scattered Clouds
11:53 AM 84.9 °F 92.1 °F 73.9 °F 69% 30.03 in 10.0 mi SW 8.1 mph - N/A   Mostly Cloudy
12:53 PM 86.0 °F 95.1 °F 75.0 °F 70% 30.04 in 9.0 mi WSW 5.8 mph - N/A   Mostly Cloudy
1:07 PM 86.0 °F 95.1 °F 75.2 °F 70% 30.04 in 10.0 mi South 6.9 mph - N/A   Mostly Cloudy
1:53 PM 87.1 °F 95.4 °F 73.9 °F 65% 30.02 in 10.0 mi SW 6.9 mph - N/A   Mostly Cloudy
2:53 PM 90.0 °F 99.0 °F 73.9 °F 59% 30.00 in 10.0 mi West 4.6 mph - N/A   Clear
3:53 PM 91.0 °F 99.3 °F 73.0 °F 55% 29.97 in 10.0 mi South 3.5 mph - N/A   Partly Cloudy
4:18 PM 89.6 °F 96.2 °F 71.6 °F 55% 29.98 in 10.0 mi WSW 4.6 mph - N/A Thunderstorm Scattered Clouds
4:53 PM 81.0 °F 84.9 °F 71.1 °F 72% 29.98 in 10.0 mi South 12.7 mph 24.2 mph N/A Thunderstorm Thunderstorm
5:29 PM 75.2 °F - 69.8 °F 83% 30.02 in 1.5 mi WNW 11.5 mph 26.5 mph 0.17 in Rain , Thunderstorm Light Thunderstorms and Rain
5:53 PM 73.0 °F - 70.0 °F 90% 30.00 in 1.5 mi South 5.8 mph - 0.43 in Rain , Thunderstorm Thunderstorms and Rain
5:58 PM 73.4 °F - 71.6 °F 94% 30.00 in 3.0 mi South 5.8 mph - 0.01 in Rain , Thunderstorm Light Thunderstorms and Rain
6:06 PM 73.4 °F - 71.6 °F 94% 30.00 in 6.0 mi South 3.5 mph - 0.02 in Rain Light Rain
6:26 PM 73.4 °F - 71.6 °F 94% 29.99 in 9.0 mi SSE 4.6 mph - 0.02 in Thunderstorm Thunderstorm
6:41 PM 75.2 °F - 71.6 °F 89% 29.99 in 8.0 mi Calm Calm - 0.02 in   Mostly Cloudy
6:53 PM 75.0 °F - 73.0 °F 94% 29.99 in 7.0 mi South 6.9 mph - 0.02 in   Scattered Clouds
7:53 PM 75.9 °F - 73.0 °F 91% 30.04 in 10.0 mi Calm Calm - N/A   Clear
8:36 PM 75.2 °F - 73.4 °F 94% 30.05 in 8.0 mi ENE 8.1 mph - N/A Thunderstorm Overcast
8:41 PM 75.2 °F - 73.4 °F 94% 30.05 in 8.0 mi ENE 8.1 mph - N/A Thunderstorm Overcast
8:53 PM 75.0 °F - 73.0 °F 94% 30.06 in 8.0 mi Calm Calm - N/A Thunderstorm Overcast
9:03 PM 75.2 °F - 73.4 °F 94% 30.06 in 9.0 mi ENE 4.6 mph - N/A Thunderstorm Overcast
9:11 PM 75.2 °F - 73.4 °F 94% 30.07 in 9.0 mi ENE 3.5 mph - N/A Thunderstorm Thunderstorm
9:31 PM 75.2 °F - 73.4 °F 94% 30.09 in 10.0 mi Variable 4.6 mph - N/A Thunderstorm Overcast
9:41 PM 75.2 °F - 71.6 °F 89% 30.09 in 1.2 mi Variable 3.5 mph 16.1 mph 0.25 in Rain , Thunderstorm Heavy Rain
9:51 PM 73.4 °F - 71.6 °F 94% 30.09 in 1.2 mi ENE 8.1 mph - 0.45 in Rain , Thunderstorm Heavy Thunderstorms and Rain
9:53 PM 73.9 °F - 72.0 °F 93% 30.09 in 1.5 mi ENE 6.9 mph - 0.52 in Rain , Thunderstorm Heavy Thunderstorms and Rain
10:04 PM 73.4 °F - 71.6 °F 94% 30.09 in 3.0 mi SSE 8.1 mph - 0.07 in Rain , Thunderstorm Light Thunderstorms and Rain
10:11 PM 73.4 °F - 71.6 °F 94% 30.08 in 9.0 mi ESE 8.1 mph - 0.07 in Thunderstorm Thunderstorm
10:22 PM 73.4 °F - 71.6 °F 94% 30.08 in 2.5 mi Variable 5.8 mph - 0.07 in Thunderstorm Mostly Cloudy
10:30 PM 73.4 °F - 71.6 °F 94% 30.08 in 10.0 mi Variable 4.6 mph - 0.07 in Thunderstorm Partly Cloudy
10:39 PM 73.4 °F - 71.6 °F 94% 30.08 in 10.0 mi SSE 5.8 mph - 0.07 in   Clear
10:53 PM 73.9 °F - 72.0 °F 93% 30.08 in 10.0 mi SSE 5.8 mph - 0.07 in Rain Light Rain
11:43 PM 73.4 °F - 71.6 °F 94% 30.09 in 8.0 mi Calm Calm - 0.00 in Rain Light Rain
11:53 PM 73.9 °F - 72.0 °F 93% 30.09 in 8.0 mi Calm Calm - 0.00 in   Overcast